TimeEST,TemperatureF,Dew PointF,Humidity,Sea Level PressureIn,VisibilityMPH,Wind Direction,Wind SpeedMPH,Gust SpeedMPH,PrecipitationIn,Events,Conditions,WindDirDegrees,DateUTC
12:52 AM,42.1,32.0,67,30.31,10.0,SW,10.4,21.9,N/A,,Overcast,230,2013-11-26 05:52:00
1:52 AM,43.0,33.1,68,30.32,10.0,SW,9.2,19.6,N/A,,Scattered Clouds,230,2013-11-26 06:52:00
2:52 AM,43.0,30.9,62,30.32,10.0,WSW,8.1,21.9,N/A,,Clear,240,2013-11-26 07:52:00
3:52 AM,42.1,32.0,67,30.31,10.0,SW,8.1,-,N/A,,Clear,230,2013-11-26 08:52:00
4:52 AM,41.0,30.9,67,30.32,10.0,WSW,8.1,-,N/A,,Clear,250,2013-11-26 09:52:00
5:52 AM,41.0,32.0,70,30.34,10.0,WSW,10.4,-,N/A,,Clear,250,2013-11-26 10:52:00
6:52 AM,42.1,30.0,62,30.34,10.0,WSW,6.9,-,N/A,,Overcast,240,2013-11-26 11:52:00
7:52 AM,42.1,30.0,62,30.35,10.0,WSW,9.2,19.6,N/A,,Partly Cloudy,250,2013-11-26 12:52:00
8:52 AM,42.1,28.9,60,30.34,10.0,Variable,4.6,-,N/A,,Mostly Cloudy,0,2013-11-26 13:52:00
9:52 AM,43.0,28.9,58,30.36,10.0,Variable,5.8,-,N/A,,Overcast,0,2013-11-26 14:52:00
10:52 AM,44.1,30.0,58,30.34,10.0,WSW,4.6,-,N/A,,Overcast,240,2013-11-26 15:52:00
11:52 AM,45.0,30.0,56,30.32,10.0,WSW,5.8,-,N/A,,Overcast,240,2013-11-26 16:52:00
12:52 PM,46.0,30.9,56,30.31,10.0,SW,3.5,-,N/A,,Overcast,230,2013-11-26 17:52:00
1:52 PM,45.0,30.9,58,30.31,10.0,SSW,4.6,-,N/A,,Overcast,210,2013-11-26 18:52:00
2:52 PM,44.1,30.0,58,30.31,10.0,Calm,Calm,-,N/A,,Overcast,0,2013-11-26 19:52:00
3:52 PM,43.0,30.9,62,30.32,10.0,South,3.5,-,N/A,,Overcast,170,2013-11-26 20:52:00
4:52 PM,42.1,34.0,73,30.31,10.0,Calm,Calm,-,0.00,,Overcast,0,2013-11-26 21:52:00
5:52 PM,42.1,34.0,73,30.30,10.0,ENE,3.5,-,N/A,,Overcast,70,2013-11-26 22:52:00
6:52 PM,43.0,37.9,82,30.28,10.0,East,3.5,-,0.00,,Overcast,90,2013-11-26 23:52:00
7:52 PM,44.1,41.0,89,30.27,7.0,East,5.8,-,0.02,Rain,Light Rain,80,2013-11-27 00:52:00
8:52 PM,46.0,44.1,93,30.24,10.0,ESE,6.9,-,0.02,Rain,Light Rain,110,2013-11-27 01:52:00
9:52 PM,46.9,45.0,93,30.19,10.0,ESE,8.1,-,0.01,Rain,Light Rain,110,2013-11-27 02:52:00
10:39 PM,48.0,46.0,93,30.16,6.0,ESE,12.7,19.6,0.03,Rain,Light Rain,120,2013-11-27 03:39:00
10:52 PM,46.9,45.0,93,30.16,8.0,ESE,9.2,-,0.03,Rain,Light Rain,110,2013-11-27 03:52:00
11:10 PM,48.0,45.0,89,30.12,10.0,ESE,11.5,-,0.00,Rain,Light Rain,110,2013-11-27 04:10:00
11:19 PM,48.0,45.0,89,30.11,10.0,ESE,12.7,-,0.00,Rain,Light Rain,110,2013-11-27 04:19:00
11:33 PM,48.0,46.0,93,30.10,10.0,ESE,11.5,19.6,0.00,,Overcast,110,2013-11-27 04:33:00
11:52 PM,48.9,46.0,90,30.09,10.0,ESE,15.0,23.0,0.00,,Overcast,110,2013-11-27 04:52:00